Location: ????
(55.5675°N, 37.6272°E)
Time: 06:51:44
(UTC+00:00)

USA 245 - Pass Details

Date: 14 April 2026
Orbit: 264 x 994 km, 97.9° (Epoch: 15 October)

Event Time Altitude Azimuth Distance (km) Brightness Sun altitude
Exits shadow 18:28:00 21° 161° (SSE) 1,365 4.8 -14.7°
Maximum altitude 18:30:49 87° 75° (ENE) 676 3.7 -15.0°
Drops below altitude 10° 18:35:57 10° 345° (NNW) 2,316 7.4 -15.5°
Sets 18:38:29 0° 346° (NNW) 3,338 8.4 -15.7°
